Zurück zum Katalog

STARLINK-30318

AktivKommunikationVLEO
NORAD 57711·PAYLOAD·🇺🇸 United States

Gestartet Aug 27, 2023 von Cape Canaveral Space Force Station

Loading…

Nächste Überflüge (nächste 24 Stunden)

TLE

AktuellSource: CelesTrak SupGP

Epoche: Sep 15, 2026, 03:10 UTC

1 57711C 23129P   26258.13243056  .00059518  00000+0  21546-2 0  2580
2 57711  43.0027 127.7350 0001486 270.1978 274.8640 15.27566071    19

Verfolge STARLINK-30318 in Echtzeit mit AllMySat

Download on the App Store